STARLINK-32699, 62482

Orbit data source: Space-Track

STARLINK-32699, 62482 is a payload satellite owned by SpaceX/Seattle (US) in LEO that was launched on Tue, 31 Dec 2024 UTC via an FALCON 9 launch vehicle from the Air Force Eastern Test Range (AFETR). Payloads include a variety of satellites, spacecraft, and rockets equipped with specific instruments for various scientific and technological missions. These include communications satellites like Starlink; space stations such as the ISS; scientific satellites like the Hubble; Earth observation satellites from companies like Planet Labs, Umbra, and HawkEye 360; GPS; miniature CubeSats for education and research; and military/defense satellites.

Loading next visibility...
STARLINK-32699 details
Identifier
62482, 2024-254W
Orbit
LEO
Last TLE update6 hours ago
Origin
Flag of USSpaceX/Seattle (US)
ManufacturerSpaceX/Seattle
MissionOperational spacecraft
Bus & MotorSTARLINK V2M, Unknown motor
Mass730 kg wet, ~700 kg dry
Launch date (UTC)
2024-12-31 (4 weeks ago)
Launch vehicle
FALCON 9
Launch site
Air Force Eastern Test Range (AFETR)
Object type
Payload
Rocket body
Debris
Shape & HBRUnknown
Radar Cross SectionLarge (>1 m²)

Expand to show TLE details & history

TLE from 6 hours ago
0 STARLINK-32699
1 62482U 24254W   25025.58334491 -.01611853  00000-0 -28476-1 0  9995
2 62482  42.9991 166.1344 0001344 268.8966 346.3228 15.52539453  5072
Epoch: 2025-01-25T14:00Z
Definitive object data (Epoch: 2025-01-25T14:00:01Z)
Latitude-41.41998°
Longitude81.19438°
Altitude421.042 km
Speed7.659 km/s
True Right ascension03h 45m 18s
True Declination-41° 14' 27"
Sunlit
Object was in daylight at TLE epoch
Visualization TLE readout
Latitude-20.10094°
Longitude166.4407°
Altitude415.938 km
Speed7.663 km/s
Apparent Right ascension09h 37m 02s
Apparent Declination-29° 34' 16"
Sunlit
Object is in full shadow
Visualization observer readout
Local Sidereal Time21:51:02
Azimuth16.567° NNE
Elevation-79.265°
Doppler factor1
Orbital elements
Apogee altitude412.193 km
Perigee altitude410.368 km
Semi-major axis6,789.418 km
Eccentricity0.0001344
Inclination42.9991°
RAAN166.1344°
Arg. of periapsis268.8966°
True anomaly346.31916°
Mean anomaly346.3228°
Eccentric anomaly346.32098°
Mean motion3.87967 °/min
BSTAR-0.028476
Orbital period92.79 mins
Loading maneuver chart data...
Loading historical data...
Loading historical data...
Loading historical data...
Loading historical data...
Loading historical data...
Loading historical data...
Loading historical data...

STARLINK-32699 Visibility forecast

Observer location: undefined°, undefined

Span
Click to sort rows by Start time (UTC) header in descending order
Start Az.
Max El. time (UTC)
Max El. Az.
Max El.
End time (UTC)
End Az.
5 mins2025-01-26 12:17:56.050Z204.554° SW2025-01-26 12:19:56.050Z154.716° SSE26.768°2025-01-26 12:22:56.050Z87.38° E
4 mins2025-01-26 13:55:56.050Z269.378° W2025-01-26 13:56:56.050Z292.64° NW40.032°2025-01-26 13:59:56.050Z68.057° E
5 mins2025-01-26 15:32:56.050Z293.259° NW2025-01-26 15:34:56.050Z347.401° N36.398°2025-01-26 15:37:56.050Z77.592° E
5 mins2025-01-26 17:10:56.050Z283.866° WNW2025-01-26 17:12:56.050Z176.804° S44.089°2025-01-26 17:15:56.050Z115.416° SE
|